Temperature
22 22 21 21 22 22 23 24 24 24 25 24 24 24 23 22 21 19 18 18 18 17 17 17 17 17 17 17 17 17 17 17 17 17 17 17 17 17 17 17 17 17 17 18 18 18 18 18 18
22 22 22 22 22 23 23 24 24 24 25 24 24 24 23 21 20 19 18 18 18 17 17 17 17 17 17 17 17 17 17 17 17 17 17 17 17 17 17 17 17 17 17 17 17 17 17 18 17
22 22 23 23 23 23 23 24 24 25 25 25 24 23 22 21 20 19 18 18 18 17 17 17 17 17 17 17 17 17 17 17 17 17 17 17 17 17 17 17 17 17 17 17 17 17 17 17 17
22 23 24 23 23 24 24 25 25 25 25 25 24 22 20 20 19 19 18 18 18 17 17 18 17 17 17 17 17 17 17 17 17 17 17 17 17 17 17 17 17 17 17 17 17 17 17 17 17
23 24 23 23 24 25 25 26 26 25 25 24 23 22 20 19 19 19 19 18 18 18 17 18 17 17 17 17 17 16 16 17 17 17 17 17 17 17 17 17 17 17 17 17 17 17 17 17 17
24 24 23 23 24 25 26 26 25 25 25 24 23 22 20 19 19 19 19 18 18 18 18 18 17 17 17 17 17 17 17 17 17 17 17 17 17 17 17 17 16 16 17 17 17 17 17 17 17
24 24 23 24 24 24 25 25 25 25 24 24 23 22 20 19 19 19 19 18 18 18 18 18 17 17 17 17 17 17 17 17 17 17 17 17 16 16 16 16 16 16 16 17 17 17 17 17 17
25 24 24 24 24 24 25 25 25 24 24 24 23 22 20 20 19 19 19 19 18 18 18 18 17 17 17 17 17 17 17 17 16 16 16 16 16 16 16 16 16 16 16 16 17 17 17 17 17
25 24 23 24 24 24 25 25 25 24 24 23 22 22 21 20 20 19 19 19 19 19 18 18 18 17 17 17 17 17 16 16 16 16 16 16 16 16 16 16 16 16 16 16 16 16 16 16 16
26 23 24 25 25 25 25 25 25 24 24 23 22 21 21 20 20 20 19 19 19 19 19 18 18 18 17 17 17 17 17 16 16 16 16 16 16 16 16 16 16 16 16 16 16 16 16 16 16
26 24 25 26 26 25 25 25 25 24 23 23 22 21 21 21 21 20 20 19 19 19 19 19 18 18 18 17 17 17 17 17 16 16 16 16 16 16 16 16 16 16 16 16 16 16 16 16 16
26 26 26 26 25 25 25 25 25 24 23 23 22 22 21 21 21 21 20 20 19 19 19 19 19 18 18 17 17 17 17 17 17 17 16 16 16 16 16 16 16 16 16 16 16 16 16 16 16
26 26 26 25 25 25 25 25 24 23 23 23 22 22 22 21 21 21 20 20 19 19 19 19 19 18 18 18 17 17 17 17 17 17 17 16 16 16 16 16 16 15 15 15 15 15 16 16 15
26 26 26 26 25 25 25 25 24 23 23 23 22 22 22 21 21 21 21 20 20 19 19 19 19 18 18 18 17 17 17 17 17 17 17 16 16 16 16 16 16 15 15 15 15 15 15 15 15
26 26 26 26 26 26 25 24 24 24 23 23 23 22 22 22 21 21 21 20 20 19 19 19 18 18 18 18 17 17 17 17 17 17 17 16 16 16 16 16 16 15 15 15 15 15 15 15 15
26 25 24 25 26 26 24 23 24 24 24 23 23 23 22 22 21 21 21 20 20 19 19 19 18 18 18 17 17 17 17 17 17 16 16 16 16 16 16 16 16 15 15 15 15 15 15 15 15
25 24 24 25 26 26 25 23 24 24 24 24 23 23 22 22 22 21 21 20 20 19 19 19 18 18 18 17 17 17 17 17 16 16 16 16 16 16 16 16 15 15 15 15 15 15 15 15 14
25 25 25 25 26 26 25 24 25 24 24 24 24 23 23 22 22 21 21 20 20 19 19 19 18 18 17 17 17 17 16 16 16 16 16 16 16 16 16 15 15 15 15 15 15 15 15 15 14
26 26 25 26 27 26 25 25 25 25 24 24 24 23 23 22 22 21 21 20 20 19 19 19 18 18 17 17 17 16 16 16 16 16 16 16 16 16 15 15 15 15 15 15 15 15 14 14 14
26 26 25 26 26 26 25 25 25 25 25 24 24 24 23 22 22 21 21 20 20 19 19 19 18 18 17 17 16 16 16 16 16 16 16 16 15 15 15 15 15 15 15 15 14 14 14 14 14
26 26 25 25 26 26 25 24 25 25 25 25 24 24 23 23 22 21 21 20 20 19 19 19 18 18 17 17 16 16 16 16 16 16 15 15 15 15 15 15 15 15 15 15 14 14 14 14 14
25 26 26 25 24 24 25 23 24 25 25 24 24 24 23 23 22 21 21 20 20 19 19 19 18 18 17 17 16 16 16 16 16 16 15 15 15 15 15 15 15 15 15 15 14 14 14 14 14
26 26 26 25 24 24 25 24 24 25 24 24 24 24 23 22 22 21 21 20 20 19 19 18 18 18 17 17 16 16 16 16 16 16 15 15 15 15 15 15 15 15 15 15 14 14 14 14 14
26 26 26 25 24 23 25 25 24 25 25 25 25 24 23 23 22 21 20 20 19 19 18 18 18 17 17 17 16 16 16 16 16 16 15 15 15 15 15 15 15 15 15 14 14 14 14 14 14
26 24 23 23 23 24 26 25 25 25 26 26 25 24 24 23 22 21 20 19 19 19 18 18 17 17 17 17 17 16 16 16 16 16 15 15 15 15 15 15 15 15 15 14 14 14 14 14 14
25 25 23 23 23 25 26 25 25 26 26 25 25 24 23 23 22 21 20 19 19 18 18 17 17 17 17 17 17 16 16 16 16 16 16 15 15 15 15 15 15 15 15 14 14 14 14 14 14
25 25 26 24 24 24 25 25 25 26 25 25 25 24 23 22 22 21 20 19 19 18 18 17 17 17 17 17 16 16 16 16 16 16 16 15 15 15 15 15 15 15 15 14 14 14 14 14 14
25 25 24 24 23 23 24 24 23 24 24 24 24 24 23 22 22 21 20 19 19 18 18 17 17 17 16 16 16 16 16 16 16 16 15 15 15 15 15 15 15 14 14 14 14 14 14 14 14
24 24 24 24 24 23 23 23 25 24 25 24 24 24 23 22 21 21 20 19 19 18 18 17 17 17 16 16 16 16 16 16 16 15 15 15 15 15 15 15 15 14 14 14 14 14 14 14 14
25 24 24 22 23 23 23 23 25 25 25 25 24 23 23 22 21 21 20 19 19 18 18 17 17 17 16 16 16 16 16 15 15 15 15 15 15 15 15 15 15 14 14 14 14 14 14 14 14
Wind_Speed
9 10 7 2 2 1 6 7 9 8 8 9 10 10 12 12 8 6 3 4 6 8 10 10 10 10 10 10 10 10 10 9 9 9 9 9 9 9 9 9 9 8 8 7 7 6 6 6 7
8 6 4 3 1 4 6 8 9 9 7 7 9 12 12 11 10 7 4 3 6 8 10 10 10 10 10 10 10 10 10 10 9 9 9 9 9 10 10 9 9 9 8 6 5 5 6 6 7
10 8 3 1 3 6 6 7 8 8 6 7 8 10 9 7 8 5 4 5 8 10 12 11 10 10 10 10 10 10 10 9 10 9 9 9 9 10 10 10 10 10 9 7 6 6 6 7 7
6 3 1 3 10 10 8 7 6 7 7 9 9 9 9 9 6 7 5 7 9 10 12 11 10 10 9 9 10 9 9 10 10 10 10 10 10 10 10 10 10 10 9 9 8 9 9 8 7
4 1 3 6 9 9 8 8 7 9 9 11 12 11 10 9 9 8 6 8 9 9 11 11 10 10 9 9 9 9 9 9 10 10 10 11 11 11 11 10 10 10 10 11 10 10 10 9 7
3 1 3 7 10 9 8 8 8 9 9 9 11 11 8 8 7 7 7 7 7 8 9 11 10 10 10 9 9 9 9 9 9 10 10 10 11 12 11 11 11 10 10 10 10 10 9 9 8
1 2 5 8 8 8 8 8 8 7 8 8 8 9 7 8 6 6 7 6 6 6 7 9 10 10 10 10 9 9 9 8 9 8 8 9 10 11 11 11 10 10 10 9 9 9 9 9 8
1 2 6 7 7 8 8 8 8 9 8 7 6 7 7 7 6 6 6 6 5 5 5 6 9 11 11 10 9 9 8 7 7 7 6 7 8 10 10 10 10 9 9 9 9 9 9 8 8
1 3 5 6 6 6 7 8 8 8 8 10 12 12 10 9 8 7 6 5 5 5 5 5 6 8 8 9 8 8 7 5 5 5 5 5 6 7 8 10 9 9 8 8 7 7 7 6 6
3 5 6 5 6 6 7 7 6 7 8 9 10 11 10 8 7 7 6 6 5 5 4 5 6 6 6 6 7 5 5 5 4 5 5 5 6 7 9 9 8 7 6 5 4 4 4 4 4
6 5 5 6 7 6 7 6 6 7 6 7 9 9 8 7 7 7 6 6 5 5 5 5 5 6 6 4 4 4 4 4 4 5 7 6 6 6 7 6 5 5 4 3 4 4 3 5 5
6 6 6 6 6 5 5 5 7 8 6 7 9 9 7 6 6 6 6 6 5 6 6 5 5 5 5 5 3 3 3 2 3 3 6 5 3 3 3 3 4 4 4 4 4 4 6 7 8
6 6 6 6 5 4 5 5 6 7 6 7 8 8 7 5 5 6 7 7 6 6 6 5 4 5 6 4 2 3 3 2 4 4 5 5 3 3 3 3 4 4 5 4 3 4 6 6 8
4 4 5 5 5 4 4 4 5 5 5 7 7 6 6 5 5 6 6 6 6 6 6 5 4 5 6 3 2 3 3 3 4 4 4 6 4 3 3 3 4 4 5 5 5 5 5 5 6
4 4 4 4 4 4 3 2 4 6 6 6 6 6 6 5 4 5 6 6 6 7 7 6 4 5 5 5 4 3 3 5 4 4 5 7 6 5 5 3 3 4 5 6 5 6 5 5 5
6 4 3 4 5 5 3 2 5 6 6 5 5 6 5 5 5 5 6 6 6 7 7 6 5 5 5 5 4 3 4 5 4 5 6 7 7 8 5 3 3 5 5 4 4 4 4 4 5
5 4 3 4 4 4 4 3 6 6 6 5 5 6 6 5 5 6 6 5 6 6 7 7 6 5 6 5 3 4 5 4 4 5 5 6 7 8 5 3 3 5 4 3 4 4 3 4 4
2 2 2 2 3 3 3 3 6 7 6 5 5 5 6 6 6 6 6 5 6 5 5 7 6 5 5 3 3 3 4 3 4 4 5 5 5 6 5 3 4 5 4 3 3 4 3 3 3
3 3 3 1 1 2 3 3 4 7 6 6 5 5 6 6 6 7 7 6 6 5 5 6 6 6 5 2 2 2 2 2 2 2 4 4 4 5 4 3 4 3 3 3 4 3 3 2 2
4 4 3 1 1 2 3 4 5 6 6 5 5 6 6 6 7 6 6 7 6 5 5 6 6 6 5 3 2 2 2 2 2 2 2 3 3 3 4 4 3 3 3 3 3 3 1 0 1
5 5 3 3 3 5 5 5 6 7 7 6 5 5 5 6 7 7 6 5 6 5 4 5 7 6 6 4 3 3 3 2 2 2 1 2 3 3 4 3 3 3 3 2 2 2 2 0 1
5 3 4 5 6 6 5 3 5 7 8 7 6 5 5 6 6 6 6 6 6 5 4 5 6 6 5 5 3 3 2 1 1 2 1 1 2 2 3 3 3 2 2 2 2 2 1 1 1
4 3 6 8 8 9 9 6 4 7 7 8 7 7 6 6 6 6 6 6 6 6 5 4 6 6 5 4 3 2 2 1 1 2 2 2 2 2 2 3 2 1 2 2 2 2 1 0 0
4 6 9 9 7 8 9 6 3 4 6 7 7 7 7 7 7 7 7 7 6 6 5 4 5 5 5 3 4 3 3 2 2 2 1 1 1 1 1 2 2 1 2 2 2 2 1 0 1
6 6 4 4 5 5 4 3 3 6 5 5 5 7 7 7 7 7 8 7 6 7 6 5 6 5 4 3 3 3 3 2 2 2 2 1 1 1 1 1 1 1 1 1 2 1 1 1 1
7 8 5 4 4 3 2 2 5 8 7 6 5 6 7 7 7 7 8 7 6 7 6 6 6 5 4 3 2 2 3 2 1 1 2 2 1 1 2 2 2 2 1 1 1 0 0 0 0
7 7 7 8 10 8 3 2 4 6 7 5 5 6 6 6 7 7 7 8 7 7 6 6 6 5 4 3 3 2 2 2 2 1 1 1 1 1 2 2 2 2 2 1 1 1 1 0 0
8 8 5 4 5 6 4 4 5 7 6 5 5 5 5 5 6 6 6 6 7 7 6 6 6 6 5 4 3 2 2 3 2 1 1 1 1 1 2 2 2 2 3 2 1 1 0 0 0
7 8 7 5 7 5 4 1 3 5 5 5 5 5 5 4 4 5 6 5 7 8 7 6 5 5 4 4 3 2 2 2 2 2 1 2 2 3 2 2 1 2 2 2 2 2 2 1 1
6 7 7 6 7 7 6 1 3 3 3 4 4 5 5 4 4 5 5 6 6 7 6 6 6 5 4 3 3 3 3 2 2 2 2 2 1 1 1 1 1 1 1 1 2 3 2 2 1
Wind_Direction
259 243 242 243 252 93 64 66 62 53 58 53 50 61 64 53 50 78 101 59 77 85 88 78 69 70 69 64 63 64 65 64 64 65 67 68 67 66 68 66 63 59 57 56 60 66 74 87 96
271 265 251 233 254 84 70 72 70 62 71 74 63 62 65 61 69 91 99 75 83 82 80 77 74 72 69 67 67 67 66 66 67 70 70 70 69 68 67 66 63 60 56 54 64 77 81 89 97
262 263 265 295 50 68 77 73 82 81 73 74 72 59 52 57 64 83 102 101 89 87 86 86 81 76 73 70 68 68 69 69 69 72 73 72 72 72 70 66 65 61 56 52 71 87 88 91 97
267 265 272 68 71 71 86 91 86 85 73 71 78 72 66 55 70 91 102 100 94 95 95 95 89 85 79 74 72 71 70 71 71 72 73 75 74 74 73 71 69 65 59 62 77 87 87 91 100
247 247 92 91 84 81 77 75 74 72 70 72 82 88 86 79 87 93 90 87 93 98 103 105 100 94 88 82 80 76 72 73 74 76 78 78 74 74 75 71 70 67 64 66 75 81 85 84 87
273 187 102 93 87 81 78 76 73 76 77 82 89 93 91 95 90 90 86 84 94 103 108 115 115 107 100 92 88 84 82 80 79 81 83 84 82 80 79 76 72 68 66 69 71 75 80 80 77
265 94 99 97 91 86 80 73 74 77 70 64 83 92 103 106 104 107 104 96 91 100 114 125 129 122 112 103 99 96 93 89 87 90 89 93 94 89 86 80 76 71 70 75 78 80 81 81 76
300 85 101 94 91 86 82 76 76 74 72 68 71 88 109 123 126 118 119 115 107 107 112 125 130 131 129 123 118 114 109 104 103 106 103 102 107 101 95 87 80 75 73 75 78 80 81 84 81
116 99 94 88 89 95 95 88 84 87 84 76 74 85 112 128 133 131 123 116 103 99 108 115 117 115 121 125 125 134 134 125 122 131 129 123 117 113 103 94 89 82 79 80 84 86 87 86 82
93 87 95 97 104 105 94 90 96 102 91 90 91 97 114 127 136 136 126 111 106 99 98 109 112 113 106 101 117 130 123 129 134 122 121 121 108 105 103 106 103 97 89 82 81 82 89 81 73
90 98 92 88 89 95 97 90 83 87 86 98 111 117 123 132 130 121 114 106 106 104 92 96 105 107 106 98 99 93 97 97 89 92 100 95 102 114 115 126 126 115 93 71 62 60 60 72 67
96 90 89 90 87 88 89 87 79 78 85 98 102 113 123 124 119 115 114 113 107 104 98 82 93 98 100 97 89 92 92 91 81 73 94 94 89 93 107 113 114 104 84 60 48 55 56 59 62
99 104 103 104 110 101 96 93 89 86 94 104 111 114 115 117 114 117 114 113 115 107 100 88 82 97 91 83 96 92 77 74 83 58 82 95 86 91 86 90 90 86 85 71 52 58 56 53 55
105 112 121 126 131 133 124 125 120 120 126 124 123 124 120 125 129 126 121 121 120 112 107 98 91 88 95 95 88 78 85 82 80 68 77 91 85 87 81 83 81 78 77 68 59 62 62 61 63
152 158 149 159 171 151 131 121 132 142 147 141 139 133 131 142 135 127 122 118 117 116 107 97 93 83 89 81 66 81 75 68 67 62 59 78 77 78 84 73 84 88 86 78 69 65 63 65 68
203 195 182 176 186 168 187 164 142 155 164 155 156 146 145 144 133 126 114 108 110 110 107 110 95 85 81 81 70 70 77 69 63 62 49 62 68 73 77 79 82 90 85 84 84 75 68 65 66
219 209 194 175 190 186 205 173 163 179 177 176 174 155 148 148 137 123 118 121 117 115 122 120 105 97 85 81 79 60 67 63 59 63 55 52 55 68 76 72 81 83 81 74 85 83 82 80 76
242 241 236 184 172 203 208 204 175 183 196 190 173 163 157 151 145 134 130 120 114 119 123 118 111 103 94 79 77 66 61 56 58 59 58 53 59 75 76 72 72 77 77 71 83 85 81 90 95
278 285 284 268 178 237 238 230 187 183 195 190 181 174 165 152 148 132 139 137 135 136 128 121 120 115 108 91 87 85 76 71 72 69 64 55 58 87 94 82 73 76 79 84 92 94 89 98 111
263 269 274 249 223 255 254 247 211 180 189 189 188 178 166 154 147 139 149 154 153 146 146 135 126 117 110 99 93 106 95 73 79 69 75 73 57 65 93 94 95 95 94 83 87 106 91 100 91
255 265 286 297 280 255 253 253 207 169 181 179 186 173 161 157 149 148 151 148 139 141 151 135 127 120 118 109 81 75 79 70 72 80 65 73 81 64 71 87 90 97 106 116 115 106 95 54 353
270 289 295 283 272 262 236 261 208 175 173 176 180 172 164 154 152 153 152 146 145 148 148 129 127 128 123 122 106 113 119 119 130 128 129 101 102 102 103 116 109 114 108 112 112 100 93 98 347
300 312 278 269 270 276 252 245 212 165 170 175 177 170 161 151 150 148 141 140 143 138 132 127 119 119 118 124 128 126 108 123 112 104 108 100 85 88 95 107 118 131 124 130 119 105 102 122 103
277 269 258 246 253 260 250 240 190 168 165 166 163 161 157 153 148 145 135 135 136 132 131 126 120 120 126 143 154 152 143 142 126 121 120 128 130 105 111 112 121 135 126 128 133 143 165 154 110
241 258 267 231 217 240 222 226 147 124 128 135 145 153 147 147 147 145 141 144 145 143 145 142 131 126 135 166 170 150 148 153 150 145 158 157 128 127 170 139 135 129 137 141 130 143 161 172 168
247 250 264 291 285 292 246 213 121 120 123 127 136 136 139 144 146 146 146 150 150 147 148 148 141 141 156 176 164 153 145 132 125 148 146 145 152 175 180 144 134 134 144 145 134 133 181 129 154
266 254 269 286 292 287 249 138 118 127 127 131 130 124 132 139 143 145 149 156 156 152 155 154 151 155 164 168 172 169 141 133 150 155 119 121 150 174 158 146 160 160 159 167 151 166 215 172 89
262 289 291 271 287 281 251 217 171 154 144 152 140 136 133 136 140 143 151 159 157 154 158 159 159 163 164 178 192 171 157 145 137 137 126 155 190 193 161 154 176 173 175 175 159 152 258 99 98
229 247 260 268 264 280 295 22 92 146 149 152 148 138 130 131 136 139 144 156 155 151 157 161 162 162 166 178 179 173 168 162 161 161 185 217 202 190 178 178 182 164 162 169 161 173 183 208 222
251 253 259 263 272 281 287 273 90 113 123 128 132 125 121 126 130 135 140 151 154 153 160 167 171 166 162 176 182 184 170 169 180 170 200 223 224 192 169 163 153 144 147 167 171 177 185 200 217
Height
1493 1494 1494 1497 1498 1501 1504 1501 1498 1498 1499 1501 1500 1501 1505 1509 1514 1523 1522 1519 1519 1518 1516 1515 1514 1513 1513 1513 1513 1513 1513 1513 1514 1514 1514 1514 1514 1515 1515 1515 1515 1515 1515 1516 1516 1516 1517 1518 1519
1494 1495 1497 1497 1499 1508 1509 1502 1501 1501 1502 1502 1502 1504 1507 1512 1516 1519 1520 1520 1519 1518 1517 1516 1515 1515 1514 1514 1514 1514 1514 1514 1515 1515 1515 1515 1515 1515 1516 1516 1516 1515 1515 1515 1515 1516 1517 1518 1519
1494 1496 1497 1496 1499 1506 1509 1502 1501 1502 1502 1502 1504 1508 1512 1516 1519 1520 1520 1520 1520 1519 1518 1517 1516 1516 1516 1515 1515 1516 1516 1516 1516 1516 1516 1516 1516 1516 1516 1516 1516 1515 1514 1512 1512 1515 1517 1518 1519
1497 1498 1497 1500 1504 1502 1502 1501 1501 1502 1503 1504 1506 1511 1517 1519 1520 1521 1521 1521 1521 1520 1519 1518 1518 1517 1517 1517 1517 1517 1517 1517 1517 1517 1517 1517 1517 1518 1517 1517 1517 1516 1514 1510 1510 1514 1517 1518 1520
1498 1498 1501 1505 1504 1501 1500 1501 1502 1503 1504 1506 1509 1515 1519 1522 1522 1522 1522 1522 1522 1521 1520 1520 1519 1519 1518 1518 1518 1518 1518 1519 1519 1519 1519 1519 1519 1519 1519 1519 1518 1518 1517 1515 1514 1516 1518 1520 1521
1499 1497 1506 1510 1506 1502 1502 1503 1504 1506 1507 1508 1511 1515 1521 1523 1523 1523 1523 1523 1523 1523 1522 1521 1521 1520 1520 1520 1520 1520 1520 1520 1520 1520 1520 1521 1521 1521 1521 1520 1520 1520 1519 1518 1518 1519 1520 1521 1522
1499 1500 1506 1507 1508 1506 1505 1505 1506 1507 1509 1510 1512 1516 1521 1523 1523 1524 1524 1524 1524 1524 1524 1523 1522 1522 1522 1522 1522 1522 1522 1522 1522 1522 1522 1522 1523 1523 1522 1522 1522 1522 1522 1522 1522 1522 1523 1523 1524
1499 1501 1505 1506 1509 1509 1506 1507 1508 1510 1511 1513 1514 1517 1521 1523 1524 1524 1525 1525 1526 1526 1525 1525 1524 1524 1524 1524 1524 1524 1524 1524 1524 1524 1524 1525 1524 1525 1525 1524 1524 1524 1524 1524 1524 1524 1525 1525 1526
1500 1505 1510 1509 1510 1509 1507 1509 1510 1512 1513 1514 1516 1519 1521 1523 1524 1525 1526 1526 1527 1527 1527 1527 1527 1527 1527 1526 1526 1526 1526 1526 1526 1526 1526 1526 1526 1526 1527 1527 1527 1526 1526 1526 1526 1527 1527 1527 1528
1500 1508 1509 1506 1506 1507 1508 1510 1511 1512 1514 1517 1519 1521 1522 1523 1524 1525 1526 1527 1527 1528 1528 1528 1528 1528 1528 1529 1528 1528 1529 1529 1528 1528 1528 1528 1528 1528 1529 1529 1528 1528 1528 1528 1528 1528 1528 1529 1529
1502 1506 1505 1506 1507 1508 1509 1511 1512 1513 1516 1518 1520 1522 1523 1524 1525 1525 1526 1527 1528 1529 1529 1530 1530 1530 1530 1530 1530 1530 1531 1530 1531 1531 1530 1530 1530 1530 1530 1530 1530 1530 1530 1530 1530 1530 1530 1531 1531
1504 1505 1506 1508 1510 1510 1511 1512 1513 1515 1518 1519 1520 1522 1523 1524 1525 1526 1527 1528 1529 1530 1530 1531 1531 1531 1531 1531 1532 1532 1532 1532 1532 1532 1532 1532 1532 1531 1531 1531 1531 1531 1531 1532 1532 1532 1532 1532 1532
1506 1507 1509 1510 1511 1512 1512 1514 1515 1518 1519 1520 1521 1523 1524 1525 1526 1527 1528 1529 1530 1530 1531 1532 1532 1532 1532 1532 1533 1533 1533 1533 1533 1533 1533 1533 1533 1533 1532 1532 1532 1533 1533 1533 1533 1534 1533 1533 1534
1508 1508 1509 1510 1511 1512 1513 1514 1516 1518 1519 1521 1522 1523 1524 1525 1526 1527 1528 1529 1530 1531 1531 1532 1533 1533 1533 1533 1534 1534 1534 1534 1534 1534 1534 1534 1534 1534 1534 1534 1534 1534 1534 1534 1535 1535 1535 1535 1535
1508 1509 1510 1510 1510 1511 1513 1516 1515 1517 1519 1520 1521 1523 1524 1525 1526 1527 1528 1529 1530 1531 1532 1532 1533 1534 1534 1534 1534 1535 1535 1535 1535 1535 1535 1535 1535 1535 1534 1534 1535 1535 1535 1535 1535 1536 1536 1536 1536
1507 1509 1514 1510 1508 1510 1516 1522 1516 1517 1518 1519 1520 1522 1524 1525 1526 1527 1528 1529 1530 1531 1532 1533 1534 1534 1535 1535 1535 1536 1536 1536 1536 1536 1536 1535 1535 1535 1535 1535 1536 1536 1536 1536 1536 1536 1537 1537 1537
1509 1514 1514 1510 1506 1507 1511 1517 1514 1515 1516 1518 1519 1520 1522 1524 1526 1527 1528 1529 1530 1531 1531 1533 1534 1534 1535 1535 1536 1536 1536 1536 1537 1536 1536 1536 1536 1536 1536 1536 1536 1537 1537 1537 1537 1537 1538 1538 1538
1514 1511 1510 1510 1506 1506 1510 1512 1511 1513 1514 1515 1517 1519 1520 1523 1525 1526 1528 1529 1530 1531 1532 1533 1534 1535 1535 1536 1536 1536 1537 1537 1537 1537 1537 1537 1537 1537 1537 1537 1537 1537 1538 1538 1538 1538 1538 1539 1539
1505 1508 1510 1507 1503 1506 1509 1509 1508 1510 1512 1513 1515 1517 1519 1521 1523 1525 1527 1528 1530 1531 1532 1533 1534 1535 1535 1536 1536 1537 1537 1537 1537 1537 1538 1538 1538 1538 1538 1538 1538 1538 1538 1539 1539 1539 1539 1540 1540
1504 1508 1509 1505 1503 1505 1508 1507 1505 1506 1509 1511 1513 1515 1517 1519 1522 1524 1526 1527 1529 1530 1532 1532 1533 1535 1535 1536 1537 1537 1537 1538 1538 1538 1538 1538 1538 1538 1539 1539 1539 1538 1539 1539 1540 1540 1540 1541 1541
1505 1507 1508 1508 1505 1503 1507 1510 1504 1503 1506 1509 1511 1513 1515 1517 1520 1522 1524 1526 1528 1529 1531 1532 1533 1534 1535 1536 1537 1537 1538 1538 1538 1538 1538 1538 1539 1539 1539 1539 1539 1540 1540 1540 1540 1540 1541 1541 1542
1507 1501 1504 1506 1512 1513 1508 1522 1507 1501 1503 1506 1509 1511 1513 1516 1518 1520 1522 1524 1526 1528 1530 1532 1533 1534 1535 1536 1537 1537 1538 1538 1539 1539 1539 1539 1539 1539 1539 1539 1540 1540 1540 1541 1541 1541 1541 1542 1542
1503 1501 1503 1505 1509 1511 1505 1513 1507 1498 1503 1503 1505 1508 1511 1514 1516 1519 1521 1523 1525 1527 1529 1531 1532 1533 1534 1535 1536 1537 1538 1538 1539 1539 1539 1539 1539 1539 1540 1540 1540 1540 1541 1541 1541 1541 1542 1542 1542
1500 1502 1502 1503 1509 1520 1504 1508 1509 1499 1499 1500 1502 1506 1509 1512 1515 1518 1520 1522 1524 1526 1528 1530 1531 1533 1534 1535 1536 1537 1537 1538 1538 1539 1539 1539 1539 1539 1540 1540 1540 1540 1541 1541 1541 1542 1542 1542 1542
1502 1510 1521 1520 1523 1516 1494 1500 1503 1493 1493 1497 1500 1504 1507 1511 1514 1516 1518 1520 1523 1525 1527 1529 1530 1532 1533 1534 1535 1536 1537 1538 1538 1538 1539 1539 1539 1539 1540 1540 1540 1540 1541 1541 1541 1542 1542 1542 1542
1501 1506 1522 1529 1522 1508 1495 1501 1497 1489 1493 1496 1500 1503 1506 1510 1512 1515 1517 1519 1522 1524 1526 1528 1529 1530 1532 1533 1535 1536 1536 1537 1537 1538 1538 1538 1539 1539 1539 1540 1540 1540 1540 1541 1541 1541 1541 1542 1542
1503 1502 1499 1509 1510 1513 1503 1498 1495 1490 1493 1497 1500 1503 1506 1509 1511 1514 1516 1518 1520 1522 1524 1526 1528 1529 1531 1532 1534 1535 1536 1536 1537 1537 1537 1538 1538 1538 1539 1539 1539 1539 1539 1540 1540 1540 1540 1541 1541
1500 1501 1504 1511 1521 1522 1508 1502 1503 1497 1497 1497 1499 1503 1506 1508 1510 1512 1515 1517 1519 1521 1523 1525 1527 1528 1530 1531 1533 1534 1534 1535 1535 1536 1536 1536 1537 1537 1537 1538 1538 1538 1538 1539 1539 1539 1539 1540 1540
1502 1504 1504 1506 1508 1519 1520 1512 1490 1492 1493 1496 1498 1502 1505 1507 1510 1512 1513 1515 1518 1520 1522 1524 1525 1527 1528 1530 1531 1532 1533 1533 1534 1534 1535 1535 1535 1536 1536 1537 1537 1537 1537 1538 1538 1538 1538 1538 1539
1497 1500 1504 1515 1513 1506 1512 1511 1488 1490 1492 1495 1498 1501 1504 1507 1509 1510 1512 1514 1516 1518 1520 1522 1524 1525 1527 1528 1529 1530 1531 1531 1532 1532 1533 1533 1534 1534 1535 1535 1536 1536 1536 1536 1537 1537 1537 1537 1537